Corsicana, TX

5:42 PM CDT on April 25, 2017 (GMT -0500)
Campbell-Corsicana Municipal

Weather History for KCRS - January, 2013

Change the Weather History Date:

Saturday, January 19, 2013

  Actual Average (KTYR) Record (KTYR)
Temperature  
Mean Temperature 50 °F -  
Max Temperature 64 °F 56 °F 79 °F (1952)
Min Temperature 37 °F 37 °F 6 °F (1943)
Degree Days  
Heating Degree Days 14    
Moisture  
Dew Point 39 °F    
Average Humidity 66    
Maximum Humidity 83    
Minimum Humidity 46    
Precipitation  
Precipitation 0.00 in - - ()
Sea Level Pressure  
Sea Level Pressure 30.25 in    
Wind  
Wind Speed 9 mph (South)    
Max Wind Speed 15 mph    
Max Gust Speed 18 mph    
Visibility 10 miles    
Events      
Averages and records for this station are not official NWS values.
T = Trace of Precipitation, MM = Missing Value Source: NWS Daily Summary

Daily Weather History Graph

Daily Weather History Graph

Search for Another Location

Airport or City:

Trip Planner

Search our weather history database for the weather conditions in past years. The results will help you decide how hot, cold, wet, or windy it might be!

Date:

Astronomy

Jan. 19, 2013 Rise Set
Actual Time 7:25 AM CST 5:47 PM CST
Civil Twilight 6:59 AM CST 6:14 PM CST
Nautical Twilight 6:29 AM CST 6:43 PM CST
Astronomical Twilight 6:00 AM CST 7:13 PM CST
Moon 12:10 PM CST (1/19) 1:05 AM CST (1/19)
Length of Visible Light 11h 14m
Length of Day
10h 22m
First Quarter, 57% of the Moon is Illuminated
Jan 19
First Quarter
Jan 26
Full
Feb 3
Last Quarter
Feb 10
New
Feb 17
First Quarter

Hourly Weather History & Observations

Time (CST) Temp. Windchill Dew Point Humidity Pressure Visibility Wind Dir Wind Speed Gust Speed Precip Events Conditions
12:53 AM 46.9 °F - 36.0 °F 66% 30.31 in 10.0 mi South 11.5 mph - N/A   Clear
1:53 AM 46.9 °F - 36.0 °F 66% 30.30 in 10.0 mi South 12.7 mph - N/A   Clear
2:53 AM 45.0 °F 39.7 °F 35.1 °F 68% 30.29 in 10.0 mi South 10.4 mph - N/A   Clear
3:53 AM 43.0 °F 37.7 °F 35.1 °F 74% 30.28 in 10.0 mi South 9.2 mph - N/A   Clear
4:53 AM 42.1 °F 37.7 °F 34.0 °F 73% 30.28 in 10.0 mi South 6.9 mph - N/A   Clear
5:53 AM 39.9 °F 37.8 °F 33.1 °F 77% 30.28 in 10.0 mi SSW 3.5 mph - N/A   Clear
6:53 AM 39.0 °F 34.0 °F 32.0 °F 76% 30.29 in 10.0 mi South 6.9 mph - N/A   Clear
7:53 AM 37.9 °F 32.7 °F 32.0 °F 79% 30.30 in 10.0 mi SSE 6.9 mph - N/A   Clear
8:53 AM 44.1 °F 39.0 °F 35.1 °F 71% 30.31 in 10.0 mi South 9.2 mph - N/A   Clear
9:53 AM 48.9 °F - 36.0 °F 61% 30.32 in 10.0 mi South 13.8 mph - N/A   Clear
10:53 AM 54.0 °F - 39.9 °F 59% 30.32 in 10.0 mi South 15.0 mph - N/A   Clear
11:53 AM 54.0 °F - 39.9 °F 59% 30.29 in 10.0 mi South 11.5 mph - N/A   Clear
12:53 PM 57.9 °F - 43.0 °F 58% 30.24 in 10.0 mi SSW 11.5 mph - N/A   Clear
1:53 PM 60.1 °F - 43.0 °F 53% 30.21 in 10.0 mi SSW 10.4 mph - N/A   Clear
2:53 PM 63.0 °F - 43.0 °F 48% 30.18 in 10.0 mi South 8.1 mph 18.4 mph N/A   Clear
3:53 PM 64.0 °F - 43.0 °F 46% 30.18 in 10.0 mi SSW 11.5 mph - N/A   Clear
4:53 PM 63.0 °F - 43.0 °F 48% 30.19 in 10.0 mi South 5.8 mph - N/A   Clear
5:53 PM 57.9 °F - 42.1 °F 56% 30.19 in 10.0 mi Calm Calm - N/A   Clear
6:53 PM 54.0 °F - 42.1 °F 64% 30.20 in 10.0 mi ESE 4.6 mph - N/A   Clear
7:53 PM 53.1 °F - 42.1 °F 66% 30.21 in 10.0 mi SE 6.9 mph - N/A   Clear
8:53 PM 48.9 °F - 43.0 °F 80% 30.22 in 10.0 mi East 4.6 mph - N/A   Clear
9:53 PM 50.0 °F - 43.0 °F 77% 30.23 in 8.0 mi ESE 8.1 mph - N/A   Clear
10:53 PM 48.9 °F - 43.0 °F 80% 30.24 in 10.0 mi SE 6.9 mph - N/A   Clear
11:53 PM 46.0 °F 43.1 °F 41.0 °F 83% 30.25 in 9.0 mi SSE 5.8 mph - N/A   Clear